Vorticity
3 -1 10 7 0 11 7 3 1 10 5 -1 -0 7 9 4 4 5 6 8 4 5 11 11 12 8 9 9 7 6 6 7 6 5 7 11 5 4 6 11 11 1 11
1 -4 13 -1 -3 4 8 0 2 2 3 10 4 6 9 6 4 2 2 4 6 5 4 5 9 12 11 10 10 10 5 5 8 6 5 9 8 12 6 6 8 -1 6
-2 -8 8 8 7 9 -4 -2 0 3 5 5 5 7 7 -3 5 3 3 4 4 4 4 5 10 9 13 21 16 11 10 7 6 8 9 5 6 17 11 8 13 21 6
4 9 10 8 1 8 -13 17 17 19 19 9 5 6 7 2 4 1 3 2 4 4 6 4 4 7 7 4 14 19 16 9 7 8 7 11 7 9 11 -4 -4 8 5
18 8 0 1 -1 -2 17 12 8 12 15 8 17 13 6 5 5 6 4 4 -0 3 0 5 3 3 2 2 4 11 14 20 12 8 8 7 11 8 2 6 8 13 -22
9 -1 -9 -2 24 7 6 3 8 8 12 5 11 6 7 7 6 6 6 8 9 6 5 2 5 5 5 4 3 -4 -1 8 14 14 9 9 8 9 11 12 7 6 7
-5 -13 12 13 3 6 15 16 7 10 15 12 10 7 4 7 6 6 8 8 8 10 8 3 5 4 6 -5 -2 11 8 3 6 15 12 7 7 11 12 10 9 12 11
9 14 1 4 16 16 12 8 7 9 10 8 6 7 10 6 6 6 8 7 5 4 -1 7 10 9 6 7 7 6 -4 27 11 5 14 14 7 8 10 11 10 9 15
-1 6 8 20 10 8 7 7 4 5 7 9 9 7 10 6 7 8 8 9 8 7 8 4 -0 0 -1 2 5 4 -7 8 2 8 10 10 7 7 9 12 14 12 6
11 15 20 14 10 4 7 9 12 8 6 6 9 13 16 14 9 11 5 10 9 10 9 8 11 3 2 27 21 8 2 10 13 3 4 6 6 4 9 5 15 16 13
3 26 5 2 6 16 11 7 7 6 6 10 10 12 7 10 11 20 8 9 11 20 19 17 19 17 5 6 0 -2 18 10 4 21 1 -0 4 5 5 6 7 11 16
6 13 11 21 14 7 7 10 8 7 9 12 11 11 14 15 16 18 21 23 17 17 23 24 27 24 26 24 16 -18 14 17 8 15 20 4 3 10 7 3 4 2 11
-11 5 19 8 11 9 12 9 4 11 16 16 14 12 9 13 6 3 8 2 11 13 6 7 8 11 13 19 27 29 39 -15 21 29 -3 38 2 -1 10 6 6 4 3
13 11 7 10 14 14 13 21 19 15 16 14 12 13 13 17 23 20 15 13 28 19 20 17 17 14 13 19 21 22 22 29 27 -29 28 21 16 -3 4 4 7 6 9
8 -0 11 12 16 26 9 13 15 21 22 20 19 18 17 18 12 9 17 17 -2 26 14 15 15 8 13 8 9 11 24 9 12 38 46 16 -2 1 31 9 5 4 10
2 9 10 8 5 -14 3 7 15 24 19 13 16 16 19 17 14 17 8 3 11 -24 19 5 3 2 2 13 9 9 6 31 16 12 24 19 22 3 16 14 24 11 -2
12 -1 5 27 15 14 16 9 24 29 18 11 5 5 5 4 6 14 9 11 13 7 11 -3 31 -2 5 6 0 14 12 7 27 14 6 3 10 11 32 19 16 9 9
-6 12 17 41 7 13 11 26 17 12 6 8 8 8 8 9 10 9 9 13 21 6 5 10 20 4 17 8 7 -9 19 12 0 55 11 19 22 16 14 7 3 15 10
6 19 17 12 7 14 15 19 3 6 8 4 3 5 7 10 11 13 11 10 9 9 15 15 3 15 11 4 -4 -2 12 16 13 -10 38 20 22 27 23 7 6 7 14
23 18 5 3 11 7 17 7 6 9 5 4 6 9 13 17 20 22 21 15 13 14 10 11 12 6 5 14 24 15 16 9 6 26 -3 8 -5 4 10 10 5 14 11
11 26 2 6 9 12 8 7 9 6 3 7 12 15 16 16 19 20 17 17 20 16 17 15 12 9 0 5 -1 21 10 -2 -5 -1 24 -2 6 4 -2 0 8 11 13
-14 14 -2 5 7 10 7 10 4 2 9 15 14 18 17 16 20 21 22 18 14 14 13 7 11 10 12 13 20 12 22 17 13 13 4 13 6 6 5 7 8 8 6
14 1 4 3 10 8 10 6 3 8 13 13 18 20 16 16 19 20 25 20 18 16 15 9 8 10 12 16 13 14 16 19 10 9 8 8 4 15 14 10 13 14 13
5 13 4 1 11 10 9 3 6 8 13 20 23 15 14 17 18 14 16 20 18 20 18 20 16 11 13 14 15 15 12 13 14 15 11 13 8 4 5 6 3 2 3
5 5 -1 4 15 12 6 6 4 15 15 23 16 14 17 19 19 17 13 21 18 18 17 15 17 16 16 17 15 17 15 12 13 17 16 13 12 11 4 -1 -3 0 2
8 7 -3 16 13 8 6 8 8 11 19 19 14 17 21 22 20 18 11 13 13 14 17 17 15 15 16 15 13 13 15 15 17 18 18 15 18 19 21 22 22 18 13
Height
3171 3170 3168 3165 3162 3160 3158 3156 3154 3152 3150 3148 3145 3142 3139 3136 3133 3130 3129 3129 3127 3125 3124 3123 3122 3122 3122 3122 3122 3122 3123 3124 3125 3126 3127 3128 3129 3131 3134 3135 3138 3141 3145
3170 3168 3166 3162 3159 3157 3154 3151 3148 3145 3143 3140 3139 3136 3134 3131 3128 3125 3122 3121 3120 3119 3118 3117 3117 3115 3115 3115 3116 3116 3116 3117 3118 3120 3122 3122 3123 3125 3128 3130 3133 3136 3140
3167 3165 3161 3158 3155 3151 3149 3146 3143 3139 3136 3133 3130 3127 3125 3124 3122 3120 3117 3115 3113 3111 3111 3110 3110 3109 3108 3108 3108 3109 3109 3109 3110 3112 3115 3116 3118 3120 3121 3124 3127 3130 3133
3161 3158 3155 3152 3149 3146 3143 3139 3134 3128 3126 3123 3121 3119 3117 3115 3114 3113 3112 3109 3106 3104 3103 3102 3101 3101 3102 3101 3101 3101 3102 3103 3103 3104 3107 3108 3109 3112 3115 3117 3119 3122 3124
3155 3152 3149 3146 3143 3139 3136 3131 3126 3120 3116 3114 3113 3110 3109 3107 3106 3104 3101 3098 3096 3095 3093 3093 3093 3092 3093 3093 3094 3094 3094 3096 3097 3097 3098 3100 3102 3104 3107 3110 3112 3115 3118
3149 3147 3144 3139 3133 3128 3125 3122 3117 3113 3109 3104 3101 3099 3098 3097 3096 3094 3091 3090 3087 3086 3085 3083 3084 3084 3084 3083 3084 3085 3086 3087 3088 3089 3090 3091 3092 3095 3098 3101 3103 3106 3109
3144 3140 3134 3129 3124 3119 3114 3110 3106 3103 3100 3096 3090 3088 3086 3086 3085 3085 3080 3079 3077 3076 3074 3073 3073 3072 3073 3073 3073 3075 3076 3078 3079 3080 3081 3083 3084 3086 3088 3091 3094 3097 3101
3134 3129 3124 3118 3113 3108 3104 3100 3096 3092 3089 3085 3079 3075 3068 3072 3074 3072 3070 3066 3064 3063 3062 3061 3060 3060 3061 3061 3063 3062 3065 3067 3069 3070 3072 3074 3075 3076 3078 3080 3083 3087 3090
3124 3119 3113 3108 3102 3097 3093 3089 3085 3081 3077 3074 3070 3066 3058 3053 3050 3054 3057 3054 3051 3049 3048 3047 3046 3044 3046 3048 3050 3052 3053 3054 3057 3060 3061 3064 3066 3067 3070 3071 3073 3075 3079
3115 3108 3103 3098 3093 3088 3084 3079 3074 3070 3065 3061 3057 3053 3048 3043 3036 3031 3032 3036 3037 3037 3035 3033 3030 3031 3030 3030 3034 3038 3041 3044 3045 3045 3048 3052 3056 3059 3060 3063 3065 3067 3070
3103 3096 3092 3088 3083 3078 3073 3067 3063 3059 3054 3048 3043 3038 3035 3030 3026 3021 3013 3014 3014 3017 3020 3018 3015 3014 3015 3017 3019 3022 3026 3032 3033 3033 3034 3038 3044 3048 3050 3053 3056 3059 3062
3094 3089 3084 3079 3073 3067 3062 3056 3051 3045 3041 3035 3030 3027 3022 3017 3012 3009 3004 3001 2998 3000 3004 3005 3002 3000 3000 3001 3004 3006 3011 3016 3019 3019 3021 3025 3027 3034 3040 3043 3045 3049 3052
3082 3076 3072 3067 3060 3055 3050 3045 3040 3034 3028 3024 3019 3014 3011 3007 3003 3000 2995 2991 2988 2991 2992 2994 2993 2990 2988 2988 2990 2991 2996 3002 3005 3005 3009 3013 3016 3019 3026 3031 3035 3038 3042
3071 3063 3058 3053 3048 3042 3037 3033 3027 3022 3018 3012 3008 3003 2999 2996 2993 2990 2987 2984 2980 2979 2981 2981 2982 2980 2979 2978 2979 2980 2982 2984 2990 2994 2995 2999 3004 3007 3010 3016 3024 3027 3031
3061 3055 3050 3043 3038 3033 3028 3022 3015 3009 3005 3000 2996 2992 2988 2985 2983 2980 2977 2976 2973 2968 2968 2970 2971 2972 2971 2971 2971 2970 2971 2972 2975 2981 2983 2988 2991 2997 3001 3004 3010 3015 3020
3052 3046 3042 3034 3029 3024 3018 3010 3005 2999 2995 2991 2986 2983 2979 2975 2972 2970 2967 2966 2964 2961 2958 2959 2963 2962 2964 2964 2963 2962 2963 2965 2966 2968 2973 2977 2981 2986 2990 2995 3000 3005 3009
3045 3037 3031 3026 3019 3015 3007 3001 2995 2989 2985 2981 2978 2973 2970 2966 2963 2960 2958 2955 2953 2951 2948 2950 2951 2954 2953 2955 2957 2957 2956 2956 2958 2959 2963 2967 2973 2975 2979 2984 2988 2994 3000
3034 3027 3021 3014 3011 3004 2998 2990 2986 2982 2978 2974 2969 2965 2961 2957 2953 2949 2947 2945 2943 2943 2939 2939 2940 2942 2944 2945 2946 2948 2950 2949 2953 2951 2954 2957 2961 2965 2971 2977 2980 2985 2989
3022 3016 3010 3006 3001 2996 2990 2983 2979 2975 2970 2965 2960 2954 2949 2943 2939 2937 2934 2932 2932 2931 2929 2928 2928 2930 2933 2936 2937 2939 2942 2943 2943 2945 2945 2948 2951 2955 2961 2966 2971 2975 2976
3013 3007 3003 2998 2994 2989 2983 2978 2973 2968 2962 2956 2950 2943 2936 2930 2925 2921 2919 2918 2918 2919 2919 2918 2918 2919 2921 2925 2926 2929 2934 2936 2938 2937 2941 2943 2945 2949 2952 2955 2961 2963 2964
3006 3001 2997 2993 2987 2983 2976 2971 2966 2960 2953 2946 2939 2931 2924 2917 2913 2909 2906 2905 2905 2906 2906 2908 2909 2909 2912 2915 2917 2918 2922 2926 2930 2931 2932 2935 2939 2942 2944 2946 2949 2953 2957
3000 2994 2991 2986 2982 2975 2969 2964 2959 2952 2945 2936 2928 2920 2912 2906 2902 2899 2896 2895 2894 2894 2895 2896 2897 2898 2900 2904 2906 2907 2908 2913 2919 2921 2925 2928 2931 2933 2937 2939 2942 2944 2949
2992 2989 2985 2981 2974 2968 2963 2958 2952 2944 2935 2926 2917 2909 2902 2897 2893 2888 2886 2885 2885 2884 2885 2886 2887 2889 2890 2894 2896 2897 2898 2901 2906 2912 2915 2919 2922 2924 2926 2930 2934 2936 2937
2987 2984 2979 2973 2968 2962 2957 2951 2943 2935 2926 2918 2910 2902 2895 2890 2885 2881 2878 2876 2876 2876 2877 2877 2877 2878 2881 2884 2885 2888 2889 2891 2895 2903 2905 2907 2914 2916 2919 2920 2923 2925 2927
2981 2977 2973 2968 2963 2957 2951 2944 2936 2927 2919 2911 2904 2896 2888 2882 2878 2875 2871 2869 2868 2869 2868 2868 2869 2870 2872 2873 2876 2878 2881 2883 2887 2893 2895 2894 2903 2906 2908 2910 2912 2913 2916
2975 2971 2967 2962 2956 2950 2944 2937 2928 2920 2912 2904 2898 2890 2883 2876 2872 2869 2866 2864 2863 2862 2861 2861 2861 2862 2864 2865 2868 2871 2874 2876 2879 2883 2887 2886 2893 2894 2896 2901 2904 2905 2906